This is the latest recevied weather packets stored in our database for station/object KBTL-WX. If no packets are shown the sender has not sent any weather packets the latest 10 day(s).
| Time | Temp. | Humidity | Pressure | Rain* | Wind** | Luminosity | Snow |
|---|---|---|---|---|---|---|---|
| 1777851914 | 11.11° C | 64% | 977.7 hPa | 0 mm | - | - | - |
| 1777851032 | 11.11° C | 59% | 977.2 hPa | 0 mm | - | - | - |
| 1777850114 | 12.22° C | 59% | 977.3 hPa | 0 mm | - | - | - |
| 1777849235 | 12.22° C | 59% | 977.3 hPa | 0 mm | - | - | - |
| 1777848314 | 12.22° C | 55% | 977.5 hPa | 0 mm | - | - | - |
| 1777847433 | 12.22° C | 54% | 977.8 hPa | 0 mm | - | - | - |
| 1777846514 | 12.78° C | 54% | 977.9 hPa | 0 mm | - | - | - |
| 1777845640 | 13.33° C | 54% | 977.9 hPa | 0 mm | - | - | - |
| 1777844714 | 12.78° C | 52% | 978.7 hPa | 0 mm | - | - | - |
| 1777843831 | 13.89° C | 51% | 978.6 hPa | 0 mm | - | - | - |
| 1777842913 | 14.44° C | 51% | 978.6 hPa | 0 mm | - | - | - |
| 1777842036 | 14.44° C | 51% | 978.6 hPa | 0 mm | - | - | - |
| 1777841113 | 13.89° C | 44% | 979.2 hPa | 0 mm | - | - | - |
| 1777840232 | 13.89° C | 46% | 979 hPa | 0 mm | - | - | - |
| 1777839313 | 14.44° C | 46% | 978.9 hPa | 0 mm | - | - | - |
| 1777838438 | 15° C | 45% | 978.9 hPa | 0 mm | - | - | - |
| 1777837513 | 15° C | 41% | 979.1 hPa | 0 mm | - | - | - |
| 1777836633 | 15.56° C | 41% | 979.1 hPa | 0 mm | - | - | - |
| 1777835714 | 15.56° C | 41% | 979.1 hPa | 0 mm | - | - | - |
| 1777834838 | 15.56° C | 41% | 979.1 hPa | 0 mm | - | - | - |
| 1777833914 | 15.56° C | 42% | 979.9 hPa | 0 mm | - | - | - |
| 1777833322 | 15° C | 39% | 979.9 hPa | 0 mm | - | - | - |
| 1777832114 | 15.56° C | 39% | 980.2 hPa | 0 mm | - | - | - |
| 1777831235 | 15.56° C | 39% | 980.2 hPa | 0 mm | - | - | - |
| 1777830312 | 15° C | 42% | 980.8 hPa | 0 mm | - | - | - |
* Rain latest hour (hover to see other rain measurements)
** Current wind speed in m/s (hover to see current wind gust speed)